EW9686 Weather Reports


time (UTC)temp
C
wind
direction
speed
KPH
gust
KPH
rain 1hr
cm
rain 24hr
cm
rain mn
cm
humidity
%
barometer
mb
20260508085019 8 45 1.6 3.2 0.00 0.00 0.00 77 1007.6
20260508084020 8 293 1.6 11.3 0.00 0.00 0.00 76 1007.4
20260508083019 8 293 3.2 9.7 0.00 0.00 0.00 76 1007.4
20260508082019 8 293 1.6 8.0 0.00 0.00 0.00 75 1007.2
20260508081039 8 23 1.6 17.7 0.00 0.00 0.00 75 1007.1
20260508080020 8 270 4.8 11.3 0.00 0.00 0.00 76 1007.0
20260508075019 9 270 4.8 11.3 0.00 0.00 0.00 76 1006.9
20260508074019 9 293 6.4 14.5 0.00 0.00 0.00 77 1006.7
20260508073039 9 270 3.2 9.7 0.00 0.00 0.00 79 1006.2
20260508072019 9 293 4.8 14.5 0.00 0.00 0.00 81 1005.9
20260508071019 10 23 3.2 14.5 0.00 0.00 0.00 83 1005.5
20260508070019 10 23 1.6 11.3 0.00 0.00 0.00 86 1005.5
20260508065039 10 293 1.6 8.0 0.00 0.00 0.00 87 1005.6
20260508064019 10 293 3.2 11.3 0.00 0.00 0.00 88 1005.6
20260508063019 10 45 4.8 12.9 0.00 0.00 0.00 90 1005.4
20260508062019 10 293 3.2 8.0 0.00 0.00 0.00 89 1005.3
20260508061019 10 270 3.2 8.0 0.00 0.00 0.00 90 1005.2
20260508060019 10 293 1.6 6.4 0.00 0.00 0.00 92 1005.0
20260508055019 9 0.0 0.0 0.00 0.00 0.00 92 1005.0
20260508054040 9 0.0 1.6 0.00 0.00 0.00 92 1005.0
20260508053019 9 0.0 3.2 0.00 0.00 0.00 93 1005.0
20260508052019 9 0.0 0.0 0.00 0.00 0.00 94 1005.0
20260508051019 9 0.0 1.6 0.00 0.00 0.00 95 1005.1
20260508050039 8 0.0 1.6 0.00 0.00 0.00 96 1005.3
20260508045039 8 0.0 0.0 0.00 0.00 0.00 96 1005.1
20260508044019 7 0.0 0.0 0.00 0.00 0.00 95 1005.0
20260508043019 7 0.0 0.0 0.00 0.00 0.00 95 1004.9
20260508042019 7 0.0 0.0 0.00 0.00 0.00 95 1004.9
20260508041019 7 0.0 0.0 0.00 0.00 0.00 94 1004.9
20260508040019 7 0.0 0.0 0.00 0.00 0.00 93 1004.9
20260508035040 8 0.0 0.0 0.00 0.00 0.00 93 1004.9
20260508034039 8 0.0 1.6 0.00 0.00 0.00 93 1004.8
20260508033019 8 0.0 0.0 0.00 0.00 0.00 92 1004.7
20260508032019 8 0.0 0.0 0.00 0.00 0.00 91 1004.9
20260508031019 8 0.0 0.0 0.00 0.00 0.00 90 1004.8
20260508030019 8 0.0 1.6 0.00 0.00 0.00 89 1004.9
20260508025039 8 0.0 0.0 0.00 0.00 0.00 88 1004.9
20260508024019 9 0.0 0.0 0.00 0.00 0.00 87 1005.0
20260508023019 9 0.0 1.6 0.00 0.00 0.00 86 1005.1
20260508022019 10 0.0 0.0 0.00 0.00 0.00 85 1005.2
20260508021019 10 0.0 1.6 0.00 0.00 0.00 84 1005.1
20260508020019 10 0.0 1.6 0.00 0.00 0.00 82 1005.1
20260508015019 10 0.0 1.6 0.00 0.00 0.00 81 1005.0
20260508014039 11 0.0 1.6 0.00 0.00 0.00 79 1004.9
20260508013019 11 0.0 3.2 0.00 0.00 0.00 78 1004.8
20260508012020 11 0.0 3.2 0.00 0.00 0.00 76 1004.9
20260508011040 11 0.0 3.2 0.00 0.00 0.00 74 1004.8
20260508010019 12 0.0 3.2 0.00 0.00 0.00 73 1004.7
20260508005019 12 0.0 1.6 0.00 0.00 0.00 72 1004.6
20260508004019 12 0.0 3.2 0.00 0.00 0.00 71 1004.5
20260508003019 12 0.0 1.6 0.00 0.00 0.00 70 1004.3
20260508002019 13 0.0 4.8 0.00 0.00 0.00 69 1004.2
20260508001019 13 0.0 4.8 0.00 0.00 0.00 67 1004.0
20260508000019 13 0.0 4.8 0.00 0.00 0.00 65 1003.9
20260507235020 14 0.0 3.2 0.00 0.00 0.00 63 1003.9
20260507234043 15 203 1.6 4.8 0.00 0.00 0.00 58 1003.7
20260507233019 16 0.0 3.2 0.00 0.00 0.00 46 1003.5
20260507232020 16 0.0 1.6 0.00 0.00 0.00 39 1003.3
20260507231100 17 0.0 1.6 0.00 0.00 0.00 37 1003.3
20260507230020 18 0.0 3.2 0.00 0.00 0.00 37 1003.3
20260507225020 18 270 1.6 8.0 0.00 0.00 0.00 36 1003.2
20260507224019 18 270 1.6 6.4 0.00 0.00 0.00 35 1003.3
20260507223019 18 0.0 3.2 0.00 0.00 0.00 36 1003.4
20260507222019 18 23 1.6 4.8 0.00 0.00 0.00 34 1003.3
20260507221019 18 0.0 3.2 0.00 0.00 0.00 32 1003.4
20260507220039 18 248 6.4 11.3 0.00 0.00 0.00 34 1003.4
20260507215019 18 225 1.6 3.2 0.00 0.00 0.00 35 1003.5
20260507214039 18 293 4.8 16.1 0.00 0.00 0.00 35 1003.5
20260507213039 18 293 4.8 14.5 0.00 0.00 0.00 36 1003.4
20260507212019 17 23 3.2 11.3 0.00 0.00 0.00 35 1003.2
20260507211019 18 23 3.2 11.3 0.00 0.00 0.00 33 1003.2
20260507210019 18 225 3.2 8.0 0.00 0.00 0.00 36 1003.2
20260507205019 18 293 4.8 12.9 0.00 0.00 0.00 37 1003.1
20260507204039 18 225 4.8 9.7 0.00 0.00 0.00 34 1003.1
20260507203019 18 248 4.8 9.7 0.00 0.00 0.00 37 1003.1
20260507202019 18 90 3.2 11.3 0.00 0.00 0.00 36 1003.2
20260507201019 18 270 3.2 12.9 0.00 0.00 0.00 41 1003.4
20260507200019 17 270 3.2 9.7 0.00 0.00 0.00 37 1003.4
20260507195039 17 293 6.4 14.5 0.00 0.00 0.00 36 1003.5
20260507194019 18 270 1.6 8.0 0.00 0.00 0.00 35 1003.6
20260507193019 17 23 4.8 12.9 0.00 0.00 0.00 37 1003.8
20260507192019 17 270 6.4 12.9 0.00 0.00 0.00 37 1003.9
20260507191019 17 293 8.0 16.1 0.00 0.00 0.00 38 1003.9
20260507190019 17 270 6.4 17.7 0.00 0.00 0.00 36 1003.9
20260507185039 17 248 4.8 11.3 0.00 0.00 0.00 38 1004.2
20260507184019 17 293 6.4 20.9 0.00 0.00 0.00 36 1004.4
20260507183020 17 270 6.4 14.5 0.00 0.00 0.00 37 1004.5
20260507182019 17 270 6.4 11.3 0.00 0.00 0.00 38 1004.4
20260507181019 16 270 6.4 16.1 0.00 0.00 0.00 38 1004.5
20260507180019 16 293 8.0 17.7 0.00 0.00 0.00 38 1004.6
20260507175023 16 270 8.0 19.3 0.00 0.00 0.00 39 1004.6
20260507174019 16 293 8.0 17.7 0.00 0.00 0.00 39 1005.1
20260507173019 16 45 4.8 11.3 0.00 0.00 0.00 44 1005.1
20260507172019 16 293 8.0 14.5 0.00 0.00 0.00 40 1005.2
20260507171040 16 270 6.4 19.3 0.00 0.00 0.00 45 1005.4
20260507170019 16 45 4.8 11.3 0.00 0.00 0.00 45 1005.4
20260507165019 15 270 8.0 16.1 0.00 0.00 0.00 44 1005.3
20260507164019 15 23 4.8 12.9 0.00 0.00 0.00 49 1005.5
20260507163019 15 270 6.4 19.3 0.00 0.00 0.00 44 1005.8
20260507162019 15 293 4.8 11.3 0.00 0.00 0.00 51 1005.9
20260507161019 15 23 6.4 14.5 0.00 0.00 0.00 50 1006.0
20260507160019 15 270 8.0 14.5 0.00 0.00 0.00 51 1006.2
20260507155019 14 270 6.4 20.9 0.00 0.00 0.00 53 1006.3
20260507154020 14 270 9.7 17.7 0.00 0.00 0.00 52 1006.7
20260507153019 14 270 6.4 14.5 0.00 0.00 0.00 55 1006.7
20260507152019 14 293 8.0 19.3 0.00 0.00 0.00 54 1007.0
20260507151019 14 270 6.4 17.7 0.00 0.00 0.00 57 1006.9
20260507150022 13 270 8.0 16.1 0.00 0.00 0.00 59 1007.0
20260507145019 13 23 6.4 19.3 0.00 0.00 0.00 61 1007.0
20260507144019 13 270 6.4 17.7 0.00 0.00 0.00 64 1007.2
20260507143020 13 270 6.4 14.5 0.00 0.00 0.00 66 1007.2
20260507142039 12 45 4.8 12.9 0.00 0.00 0.00 67 1007.2
20260507141019 12 293 6.4 16.1 0.00 0.00 0.00 67 1007.2
20260507140019 12 293 4.8 12.9 0.00 0.00 0.00 72 1007.2
20260507135019 12 23 3.2 9.7 0.00 0.00 0.00 75 1007.2
20260507134019 12 45 6.4 14.5 0.00 0.00 0.00 75 1007.1
20260507133019 11 293 6.4 16.1 0.00 0.00 0.00 79 1007.1
20260507132019 11 270 8.0 19.3 0.00 0.00 0.00 81 1007.2
20260507131019 11 0.0 3.2 0.00 0.00 0.00 86 1007.2
20260507130019 10 270 6.4 16.1 0.00 0.00 0.00 86 1007.0
20260507125019 10 270 3.2 12.9 0.00 0.00 0.00 88 1007.1
20260507124019 10 270 4.8 12.9 0.00 0.00 0.00 90 1007.3
20260507123019 10 293 3.2 12.9 0.00 0.00 0.00 90 1007.2
20260507122019 10 293 4.8 16.1 0.00 0.00 0.00 91 1007.1
20260507121019 10 293 3.2 8.0 0.00 0.00 0.00 92 1007.1
20260507120059 10 270 1.6 8.0 0.00 0.00 0.00 93 1007.1
20260507115019 10 270 3.2 9.7 0.00 0.00 0.00 93 1007.0
20260507114039 10 270 3.2 12.9 0.00 0.00 0.00 94 1006.9
20260507113039 10 270 1.6 8.0 0.00 0.00 0.00 94 1006.9
20260507112040 10 270 1.6 8.0 0.00 0.00 0.00 95 1006.6
20260507111519 10 270 1.6 3.2 0.00 0.00 0.00 95 1006.6
20260507110519 10 270 1.6 8.0 0.00 0.00 0.00 95 1006.3
20260507105519 10 270 1.6 8.0 0.00 0.00 0.00 96 1006.3
20260507104519 9 270 1.6 6.4 0.00 0.00 0.00 95 1006.0
20260507103519 9 0.0 4.8 0.00 0.00 0.00 96 1006.0
20260507102519 9 293 1.6 6.4 0.00 0.00 0.00 96 1005.8
20260507101519 9 270 1.6 3.2 0.00 0.00 0.00 95 1005.9
20260507100519 9 270 1.6 8.0 0.00 0.00 0.00 95 1005.8
20260507095519 9 270 1.6 6.4 0.00 0.00 0.00 95 1005.7
20260507094519 9 293 1.6 8.0 0.00 0.00 0.00 95 1005.6
20260507093519 9 0.0 3.2 0.00 0.00 0.00 95 1005.6
20260507092519 9 293 1.6 8.0 0.00 0.00 0.00 95 1005.4
20260507091519 9 293 3.2 8.0 0.00 0.00 0.00 95 1005.4
20260507090521 9 293 3.2 11.3 0.00 0.00 0.00 95 1005.3
20260507085520 9 293 3.2 9.7 0.00 0.00 0.00 94 1005.1